ON3FV Weather Reports


Display with metric or nautical units.
time (UTC)temp
F
wind
direction
speed
MPH
gust
MPH
rain 1hr
in
rain 24hr
in
rain mn
in
humidity
%
barometer
mb
20260508191734 62 0.0 0.0 0.00 0.00 0.00 66 1016.1
20260508191232 62 0.0 0.0 0.00 0.00 0.00 66 1016.1
20260508190731 62 0.0 0.0 0.00 0.00 0.00 66 1016.1
20260508190230 62 0.0 0.0 0.00 0.00 0.00 66 1016.1
20260508185729 63 0.0 0.0 0.00 0.00 0.00 66 1015.9
20260508185228 63 0.0 0.0 0.00 0.00 0.00 66 1015.9
20260508184728 64 0.0 0.0 0.00 0.00 0.00 65 1015.8
20260508184227 64 0.0 0.0 0.00 0.00 0.00 65 1015.8
20260508183726 64 0.0 0.0 0.00 0.00 0.00 65 1015.7
20260508183224 64 0.0 0.0 0.00 0.00 0.00 65 1015.7
20260508182724 65 0.0 0.0 0.00 0.00 0.00 64 1015.8
20260508182222 65 0.0 0.0 0.00 0.00 0.00 64 1015.8
20260508181722 65 0.0 0.0 0.00 0.00 0.00 63 1015.7
20260508181220 65 0.0 0.0 0.00 0.00 0.00 63 1015.7
20260508180720 65 0.0 0.0 0.00 0.00 0.00 61 1015.6
20260508180219 65 0.0 0.0 0.00 0.00 0.00 61 1015.6
20260508175718 65 0.0 0.0 0.00 0.00 0.00 62 1015.4
20260508175216 65 0.0 0.0 0.00 0.00 0.00 62 1015.4
20260508174715 65 0.0 0.0 0.00 0.00 0.00 62 1015.4
20260508174215 65 0.0 0.0 0.00 0.00 0.00 62 1015.4
20260508173713 65 0.0 0.0 0.00 0.00 0.00 60 1015.3
20260508173213 65 0.0 0.0 0.00 0.00 0.00 60 1015.3
20260508172731 65 0.0 0.0 0.00 0.00 0.00 61 1015.3
20260508172211 65 0.0 0.0 0.00 0.00 0.00 61 1015.3
20260508171709 65 0.0 0.0 0.00 0.00 0.00 63 1015.3
20260508171229 65 0.0 0.0 0.00 0.00 0.00 63 1015.3
20260508170707 65 0.0 0.0 0.00 0.00 0.00 63 1015.3
20260508170206 65 0.0 0.0 0.00 0.00 0.00 63 1015.3
20260508165706 65 0.0 0.0 0.00 0.00 0.00 63 1015.2
20260508165204 65 0.0 0.0 0.00 0.00 0.00 63 1015.2
20260508164704 65 0.0 0.0 0.00 0.00 0.00 63 1015.2
20260508164202 65 0.0 0.0 0.00 0.00 0.00 63 1015.2
20260508163702 65 0.0 0.0 0.00 0.00 0.00 63 1015.2
20260508163200 65 0.0 0.0 0.00 0.00 0.00 63 1015.2
20260508162700 65 0.0 0.0 0.00 0.00 0.00 62 1015.2
20260508162159 65 0.0 0.0 0.00 0.00 0.00 62 1015.2
20260508161657 65 0.0 0.0 0.00 0.00 0.00 61 1015.2
20260508161217 65 0.0 0.0 0.00 0.00 0.00 61 1015.2
20260508160656 65 0.0 0.0 0.00 0.00 0.00 61 1015.1
20260508160154 65 0.0 0.0 0.00 0.00 0.00 61 1015.1
20260508155653 66 0.0 0.0 0.00 0.00 0.00 60 1015.1
20260508155152 66 0.0 0.0 0.00 0.00 0.00 60 1015.1
20260508154712 66 0.0 0.0 0.00 0.00 0.00 59 1015.1
20260508154150 66 0.0 0.0 0.00 0.00 0.00 59 1015.1
20260508153650 67 0.0 0.0 0.00 0.00 0.00 62 1015.2
20260508153148 67 0.0 0.0 0.00 0.00 0.00 62 1015.2
20260508152648 66 0.0 0.0 0.00 0.00 0.00 61 1015.3
20260508152207 66 0.0 0.0 0.00 0.00 0.00 61 1015.3
20260508151645 66 0.0 0.0 0.00 0.00 0.00 60 1015.3
20260508151204 66 0.0 0.0 0.00 0.00 0.00 60 1015.3
20260508150644 66 0.0 0.0 0.00 0.00 0.00 61 1015.3
20260508150142 66 0.0 0.0 0.00 0.00 0.00 61 1015.3
20260508145702 65 0.0 0.0 0.00 0.00 0.00 60 1015.4
20260508145140 65 0.0 0.0 0.00 0.00 0.00 60 1015.4
20260508144640 66 0.0 0.0 0.00 0.00 0.00 59 1015.5
20260508144139 66 0.0 0.0 0.00 0.00 0.00 59 1015.5
20260508143638 66 0.0 0.0 0.00 0.00 0.00 58 1015.5
20260508143136 66 0.0 0.0 0.00 0.00 0.00 58 1015.5
20260508142636 66 0.0 0.0 0.00 0.00 0.00 59 1015.6
20260508142134 66 0.0 0.0 0.00 0.00 0.00 59 1015.6
20260508141633 66 0.0 0.0 0.00 0.00 0.00 59 1015.6
20260508141132 65 0.0 0.0 0.00 0.00 0.00 60 1015.6
20260508140633 65 0.0 0.0 0.00 0.00 0.00 60 1015.6
20260508140152 65 0.0 0.0 0.00 0.00 0.00 59 1015.7
20260508135630 65 0.0 0.0 0.00 0.00 0.00 59 1015.7
20260508135148 65 0.0 0.0 0.00 0.00 0.00 58 1015.6
20260508134628 65 0.0 0.0 0.00 0.00 0.00 58 1015.6
20260508134126 65 0.0 0.0 0.00 0.00 0.00 59 1015.6
20260508133626 65 0.0 0.0 0.00 0.00 0.00 59 1015.6
20260508133124 65 0.0 0.0 0.00 0.00 0.00 58 1015.7
20260508132625 65 0.0 0.0 0.00 0.00 0.00 58 1015.7
20260508132123 65 0.0 0.0 0.00 0.00 0.00 59 1015.7
20260508131622 65 0.0 0.0 0.00 0.00 0.00 59 1015.7
20260508131122 65 0.0 0.0 0.00 0.00 0.00 63 1015.9
20260508130620 65 0.0 0.0 0.00 0.00 0.00 63 1015.9
20260508130119 65 0.0 0.0 0.00 0.00 0.00 63 1015.9
20260508125638 65 0.0 0.0 0.00 0.00 0.00 63 1015.9
20260508125117 64 0.0 0.0 0.00 0.00 0.00 64 1015.9
20260508124616 64 0.0 0.0 0.00 0.00 0.00 64 1015.9
20260508124135 64 0.0 0.0 0.00 0.00 0.00 63 1015.9
20260508123613 64 0.0 0.0 0.00 0.00 0.00 63 1015.9
20260508123113 64 0.0 0.0 0.00 0.00 0.00 63 1015.9
20260508122611 64 0.0 0.0 0.00 0.00 0.00 63 1015.9
20260508122151 64 0.0 0.0 0.00 0.00 0.00 63 1015.9
20260508121610 64 0.0 0.0 0.00 0.00 0.00 63 1015.9
20260508121109 64 0.0 0.0 0.00 0.00 0.00 66 1015.9
20260508120607 64 0.0 0.0 0.00 0.00 0.00 66 1015.9
20260508120107 64 0.0 0.0 0.00 0.00 0.00 66 1015.9
20260508115606 64 0.0 0.0 0.00 0.00 0.00 66 1015.9
20260508115104 64 0.0 0.0 0.00 0.00 0.00 65 1015.9
20260508114603 64 0.0 0.0 0.00 0.00 0.00 65 1015.9
20260508114103 64 0.0 0.0 0.00 0.00 0.00 66 1016.0
20260508113602 64 0.0 0.0 0.00 0.00 0.00 66 1016.0
20260508113100 64 0.0 0.0 0.00 0.00 0.00 68 1016.1
20260508112559 64 0.0 0.0 0.00 0.00 0.00 68 1016.1
20260508112059 64 0.0 0.0 0.00 0.00 0.00 68 1016.1
20260508111557 64 0.0 0.0 0.00 0.00 0.00 68 1016.1
20260508111057 64 0.0 0.0 0.00 0.00 0.00 67 1016.1
20260508110555 64 0.0 0.0 0.00 0.00 0.00 67 1016.1
20260508110055 64 0.0 0.0 0.00 0.00 0.00 70 1016.2
20260508105553 64 0.0 0.0 0.00 0.00 0.00 70 1016.2
20260508105053 63 0.0 0.0 0.00 0.00 0.00 71 1016.1
20260508104551 63 0.0 0.0 0.00 0.00 0.00 71 1016.1
20260508104051 63 0.0 0.0 0.00 0.00 0.00 70 1016.1
20260508103549 63 0.0 0.0 0.00 0.00 0.00 70 1016.1
20260508103049 63 0.0 0.0 0.00 0.00 0.00 71 1016.2
20260508102609 63 0.0 0.0 0.00 0.00 0.00 71 1016.2
20260508102107 62 0.0 0.0 0.00 0.00 0.00 72 1016.2
20260508101546 62 0.0 0.0 0.00 0.00 0.00 72 1016.2
20260508101045 62 0.0 0.0 0.00 0.00 0.00 71 1016.3
20260508100544 62 0.0 0.0 0.00 0.00 0.00 71 1016.3
20260508100042 62 0.0 0.0 0.00 0.00 0.00 74 1016.3
20260508095603 62 0.0 0.0 0.00 0.00 0.00 74 1016.3
20260508095041 62 0.0 0.0 0.00 0.00 0.00 73 1016.3
20260508094619 62 0.0 0.0 0.00 0.00 0.00 73 1016.3
20260508094039 62 0.0 0.0 0.00 0.00 0.00 75 1016.3
20260508093538 62 0.0 0.0 0.00 0.00 0.00 75 1016.3
20260508093037 61 0.0 0.0 0.00 0.00 0.00 78 1016.3
20260508092535 61 0.0 0.0 0.00 0.00 0.00 78 1016.3
20260508092035 61 0.0 0.0 0.00 0.00 0.00 78 1016.4
20260508091533 61 0.0 0.0 0.00 0.00 0.00 78 1016.4
20260508091033 60 0.0 0.0 0.00 0.00 0.00 80 1016.5
20260508090612 60 0.0 0.0 0.00 0.00 0.00 80 1016.5
20260508090051 60 0.0 0.0 0.00 0.00 0.00 81 1016.5
20260508085609 60 0.0 0.0 0.00 0.00 0.00 81 1016.5
20260508085029 60 0.0 0.0 0.00 0.00 0.00 81 1016.4
20260508084527 60 0.0 0.0 0.00 0.00 0.00 81 1016.4
20260508084027 59 0.0 0.0 0.00 0.00 0.00 83 1016.4
20260508083606 59 0.0 0.0 0.00 0.00 0.00 83 1016.4
20260508083044 58 0.0 0.0 0.00 0.00 0.00 84 1016.4
20260508082544 58 0.0 0.0 0.00 0.00 0.00 84 1016.4
20260508082023 58 0.0 0.0 0.00 0.00 0.00 83 1016.4
20260508081542 58 0.0 0.0 0.00 0.00 0.00 83 1016.4
20260508081021 57 0.0 0.0 0.00 0.00 0.00 84 1016.3
20260508080520 57 0.0 0.0 0.00 0.00 0.00 84 1016.3
20260508080019 57 0.0 0.0 0.00 0.00 0.00 85 1016.4
20260508075517 57 0.0 0.0 0.00 0.00 0.00 85 1016.4
20260508075016 56 0.0 0.0 0.00 0.00 0.00 85 1016.4
20260508074516 56 0.0 0.0 0.00 0.00 0.00 85 1016.4
20260508073513 56 0.0 0.0 0.00 0.00 0.00 86 1016.3
20260508072511 55 0.0 0.0 0.00 0.00 0.00 85 1016.2
20260508071509 55 0.0 0.0 0.00 0.00 0.00 86 1016.2
20260508070507 54 0.0 0.0 0.00 0.00 0.00 86 1016.1
20260508065506 54 0.0 0.0 0.00 0.00 0.00 86 1016.1
20260508064504 53 0.0 0.0 0.00 0.00 0.00 86 1016.0
20260508063502 53 0.0 0.0 0.00 0.00 0.00 86 1015.9
20260508063020 53 0.0 0.0 0.00 0.00 0.00 86 1015.9
20260508062500 53 0.0 0.0 0.00 0.00 0.00 86 1015.9
20260508061958 53 0.0 0.0 0.00 0.00 0.00 86 1015.8
20260508061457 53 0.0 0.0 0.00 0.00 0.00 86 1015.8
20260508060956 52 0.0 0.0 0.00 0.00 0.00 86 1015.8
20260508060455 52 0.0 0.0 0.00 0.00 0.00 86 1015.8
20260508055956 52 0.0 0.0 0.00 0.00 0.00 86 1015.8
20260508055453 52 0.0 0.0 0.00 0.00 0.00 86 1015.8
20260508054953 52 0.0 0.0 0.00 0.00 0.00 86 1015.8
20260508054452 52 0.0 0.0 0.00 0.00 0.00 86 1015.8
20260508053951 52 0.0 0.0 0.00 0.00 0.00 86 1015.7
20260508053449 52 0.0 0.0 0.00 0.00 0.00 86 1015.7
20260508052948 51 0.0 0.0 0.00 0.00 0.00 86 1015.6
20260508052450 51 0.0 0.0 0.00 0.00 0.00 86 1015.6
20260508051946 51 0.0 0.0 0.00 0.00 0.00 86 1015.6
20260508051446 51 0.0 0.0 0.00 0.00 0.00 86 1015.6
20260508050944 51 0.0 0.0 0.00 0.00 0.00 86 1015.5
20260508050444 51 0.0 0.0 0.00 0.00 0.00 86 1015.5
20260508045943 51 0.0 0.0 0.00 0.00 0.00 86 1015.4
20260508045441 51 0.0 0.0 0.00 0.00 0.00 86 1015.4
20260508044941 51 0.0 0.0 0.00 0.00 0.00 86 1015.4
20260508044439 51 0.0 0.0 0.00 0.00 0.00 86 1015.4
20260508043959 51 0.0 0.0 0.00 0.00 0.00 86 1015.3
20260508043437 51 0.0 0.0 0.00 0.00 0.00 86 1015.3
20260508042937 51 0.0 0.0 0.00 0.00 0.00 86 1015.3
20260508042435 51 0.0 0.0 0.00 0.00 0.00 86 1015.3
20260508041935 52 0.0 0.0 0.00 0.00 0.00 86 1015.3
20260508041453 52 0.0 0.0 0.00 0.00 0.00 86 1015.3
20260508040932 52 0.0 0.0 0.00 0.00 0.00 86 1015.2
20260508040432 52 0.0 0.0 0.00 0.00 0.00 86 1015.2
20260508035950 52 0.0 0.0 0.00 0.00 0.00 86 1015.3
20260508035430 52 0.0 0.0 0.00 0.00 0.00 86 1015.3
20260508034928 52 0.0 0.0 0.00 0.00 0.00 86 1015.3
20260508034448 52 0.0 0.0 0.00 0.00 0.00 86 1015.3
20260508033946 52 0.0 0.0 0.00 0.00 0.00 86 1015.3
20260508033426 52 0.0 0.0 0.00 0.00 0.00 86 1015.3
20260508032945 52 0.0 0.0 0.00 0.00 0.00 86 1015.4
20260508032424 52 0.0 0.0 0.00 0.00 0.00 86 1015.4
20260508031923 52 0.0 0.0 0.00 0.00 0.00 86 1015.3
20260508031421 52 0.0 0.0 0.00 0.00 0.00 86 1015.3
20260508030920 52 0.0 0.0 0.00 0.00 0.00 86 1015.3
20260508030419 52 0.0 0.0 0.00 0.00 0.00 86 1015.3
20260508025919 52 0.0 0.0 0.00 0.00 0.00 86 1015.2
20260508025418 52 0.0 0.0 0.00 0.00 0.00 86 1015.2
20260508024917 52 0.0 0.0 0.00 0.00 0.00 86 1015.2
20260508024435 52 0.0 0.0 0.00 0.00 0.00 86 1015.2
20260508023914 52 0.0 0.0 0.00 0.00 0.00 86 1015.2
20260508023413 52 0.0 0.0 0.00 0.00 0.00 86 1015.2
20260508022912 52 0.0 0.0 0.00 0.00 0.00 86 1015.3
20260508022412 52 0.0 0.0 0.00 0.00 0.00 86 1015.3
20260508021910 52 0.0 0.0 0.00 0.00 0.00 86 1015.3
20260508021409 52 0.0 0.0 0.00 0.00 0.00 86 1015.3
20260508020909 52 0.0 0.0 0.00 0.00 0.00 86 1015.3
20260508020407 52 0.0 0.0 0.00 0.00 0.00 86 1015.3
20260508015907 52 0.0 0.0 0.00 0.00 0.00 86 1015.3
20260508015405 52 0.0 0.0 0.00 0.00 0.00 86 1015.3
20260508014905 52 0.0 0.0 0.00 0.00 0.00 86 1015.3
20260508014404 52 0.0 0.0 0.00 0.00 0.00 86 1015.3
20260508013903 52 0.0 0.0 0.00 0.00 0.00 86 1015.3
20260508013402 52 0.0 0.0 0.00 0.00 0.00 86 1015.3
20260508012900 52 0.0 0.0 0.00 0.00 0.00 86 1015.3
20260508012420 52 0.0 0.0 0.00 0.00 0.00 86 1015.3
20260508011918 52 0.0 0.0 0.00 0.00 0.00 86 1015.3
20260508011358 52 0.0 0.0 0.00 0.00 0.00 86 1015.3
20260508010856 53 0.0 0.0 0.00 0.00 0.00 86 1015.3
20260508010355 53 0.0 0.0 0.00 0.00 0.00 86 1015.3
20260508005855 53 0.0 0.0 0.00 0.00 0.00 86 1015.4
20260508005353 53 0.0 0.0 0.00 0.00 0.00 86 1015.4
20260508004853 53 0.0 0.0 0.00 0.00 0.00 85 1015.5
20260508004351 53 0.0 0.0 0.00 0.00 0.00 85 1015.5
20260508003851 53 0.0 0.0 0.00 0.00 0.00 85 1015.5
20260508003349 53 0.0 0.0 0.00 0.00 0.00 85 1015.5
20260508002849 53 0.0 0.0 0.00 0.00 0.00 85 1015.5
20260508002347 53 0.0 0.0 0.00 0.00 0.00 85 1015.5
20260508001847 53 0.0 0.0 0.00 0.00 0.00 85 1015.5
20260508001345 53 0.0 0.0 0.00 0.00 0.00 85 1015.5
20260508000845 53 0.0 0.0 0.00 0.00 0.00 85 1015.6
20260508000343 53 0.0 0.0 0.00 0.00 0.00 85 1015.6
20260507235903 53 0.0 0.0 0.00 0.00 0.00 85 1015.7
20260507235342 53 0.0 0.0 0.00 0.00 0.00 85 1015.7
20260507234840 53 0.0 0.0 0.00 0.00 0.00 85 1015.7
20260507234339 53 0.0 0.0 0.00 0.00 0.00 85 1015.7
20260507233858 53 0.0 0.0 0.00 0.00 0.00 85 1015.8
20260507233338 53 0.0 0.0 0.00 0.00 0.00 85 1015.8
20260507232837 53 0.0 0.0 0.00 0.00 0.00 85 1015.8
20260507232356 53 0.0 0.0 0.00 0.00 0.00 85 1015.8
20260507231834 53 0.0 0.0 0.00 0.00 0.00 85 1015.9
20260507231333 53 0.0 0.0 0.00 0.00 0.00 85 1015.9
20260507230833 53 0.0 0.0 0.00 0.00 0.00 85 1015.8
20260507230331 53 0.0 0.0 0.00 0.00 0.00 85 1015.8
20260507225831 53 0.0 0.0 0.00 0.00 0.00 84 1015.9
20260507225331 53 0.0 0.0 0.00 0.00 0.00 84 1015.9
20260507224828 53 0.0 0.0 0.00 0.00 0.00 84 1016.0
20260507224328 53 0.0 0.0 0.00 0.00 0.00 84 1016.0
20260507223827 54 0.0 0.0 0.00 0.00 0.00 84 1015.9
20260507223345 54 0.0 0.0 0.00 0.00 0.00 84 1015.9
20260507222825 54 0.0 0.0 0.00 0.00 0.00 84 1015.9
20260507222324 54 0.0 0.0 0.00 0.00 0.00 84 1015.9
20260507221822 54 0.0 0.0 0.00 0.00 0.00 84 1015.9
20260507221322 54 0.0 0.0 0.00 0.00 0.00 84 1016.0
20260507220820 54 0.0 0.0 0.00 0.00 0.00 84 1016.0
20260507220320 54 0.0 0.0 0.00 0.00 0.00 83 1015.9
20260507215818 54 0.0 0.0 0.00 0.00 0.00 83 1015.9
20260507215318 54 0.0 0.0 0.00 0.00 0.00 83 1015.9
20260507214837 54 0.0 0.0 0.00 0.00 0.00 83 1015.9
20260507214315 54 0.0 0.0 0.00 0.00 0.00 83 1016.0
20260507213815 54 0.0 0.0 0.00 0.00 0.00 83 1016.0
20260507213313 54 0.0 0.0 0.00 0.00 0.00 83 1016.0
20260507212813 54 0.0 0.0 0.00 0.00 0.00 83 1016.0
20260507212311 54 0.0 0.0 0.00 0.00 0.00 83 1015.9
20260507211811 54 0.0 0.0 0.00 0.00 0.00 83 1015.9
20260507211310 54 0.0 0.0 0.00 0.00 0.00 83 1015.9
20260507210848 54 0.0 0.0 0.00 0.00 0.00 83 1015.9
20260507210308 54 0.0 0.0 0.00 0.00 0.00 82 1015.8
20260507205806 54 0.0 0.0 0.00 0.00 0.00 82 1015.8
20260507205307 55 0.0 0.0 0.00 0.00 0.00 82 1015.7
20260507204805 55 0.0 0.0 0.00 0.00 0.00 82 1015.7
20260507204304 55 0.0 0.0 0.00 0.00 0.00 81 1015.8
20260507203824 55 0.0 0.0 0.00 0.00 0.00 81 1015.8
20260507203322 55 0.0 0.0 0.00 0.00 0.00 81 1015.7
20260507202801 55 0.0 0.0 0.00 0.00 0.00 81 1015.7
20260507202259 55 0.0 0.0 0.00 0.00 0.00 81 1015.6
20260507201759 55 0.0 0.0 0.00 0.00 0.00 81 1015.6
20260507201257 55 0.0 0.0 0.00 0.00 0.00 81 1015.5
20260507200757 55 0.0 0.0 0.00 0.00 0.00 81 1015.5
20260507200255 55 0.0 0.0 0.00 0.00 0.00 81 1015.4
20260507195754 55 0.0 0.0 0.00 0.00 0.00 81 1015.4
20260507195254 55 0.0 0.0 0.00 0.00 0.00 80 1015.3
20260507194912 55 0.0 0.0 0.00 0.00 0.00 80 1015.3
20260507194252 55 0.0 0.0 0.00 0.00 0.00 80 1015.2
20260507193750 55 0.0 0.0 0.00 0.00 0.00 80 1015.2
20260507193310 56 0.0 0.0 0.00 0.00 0.00 79 1015.2
20260507192748 56 0.0 0.0 0.00 0.00 0.00 79 1015.2
20260507192248 56 0.0 0.0 0.00 0.00 0.00 79 1015.2